Wind_Speed
4 1 3 6 6 5 2 2 2 3 5 8 12 14 15 14 15 17 18 18 19 21 21 19 18 18 18 17 16 15 15 15 15 14 13 11 12 12 11 11 10 9
6 5 6 8 8 8 5 4 5 4 4 7 11 14 16 16 17 19 19 18 20 20 20 18 17 17 18 17 15 14 14 14 14 14 12 11 11 11 10 9 8 7
10 10 10 8 7 8 7 6 6 7 7 8 10 14 17 19 21 21 20 19 19 19 18 17 17 17 18 17 16 14 13 13 13 13 12 10 10 10 10 9 7 6
14 13 11 8 6 7 10 11 10 10 10 10 11 14 17 21 23 23 21 19 18 18 17 16 16 16 17 17 16 14 14 13 13 13 12 10 9 9 9 9 8 6
16 15 13 9 7 9 13 16 16 14 13 12 12 14 17 22 25 25 22 20 18 17 17 17 16 17 17 16 15 14 13 14 14 13 12 10 10 10 10 10 9 7
18 17 16 14 12 14 18 21 20 17 16 15 15 16 18 23 27 26 24 22 19 18 17 17 17 17 18 17 16 14 13 13 14 14 13 11 11 11 11 11 10 9
19 19 20 19 16 18 21 24 22 18 17 17 17 17 19 24 28 28 26 24 22 20 19 19 19 19 19 19 18 16 15 14 14 14 14 13 12 12 12 12 12 11
21 21 22 23 21 23 26 27 22 19 19 19 19 20 21 25 29 30 28 27 25 23 21 21 20 20 20 21 20 19 18 17 16 15 15 15 14 13 13 13 14 14
24 27 26 28 29 29 30 28 23 20 20 19 20 21 23 25 28 31 31 29 28 26 24 23 22 22 22 22 22 22 21 20 19 18 18 17 17 16 15 14 14 15
29 31 30 31 32 31 30 27 25 23 21 20 21 22 23 25 28 30 32 32 31 29 28 27 26 26 25 25 24 24 23 23 23 22 21 21 20 20 18 17 16 16
31 33 33 32 32 30 28 26 25 25 23 23 22 22 24 25 27 30 31 32 33 32 31 30 30 30 29 29 28 27 27 27 27 26 25 25 24 23 22 21 20 19
35 34 33 32 31 30 29 27 26 25 24 24 25 25 25 25 26 28 30 32 33 33 33 33 33 33 32 32 32 32 31 31 31 31 30 29 28 27 25 25 24 23
40 37 34 32 31 31 31 30 28 26 25 25 25 26 26 26 26 27 29 31 32 33 34 35 35 34 34 34 33 33 34 35 35 34 34 34 33 31 29 28 28 28
42 41 36 33 32 31 31 31 31 28 26 25 26 26 26 28 28 28 29 31 31 32 32 33 34 35 35 36 35 34 35 37 38 37 37 37 37 36 35 33 32 32
41 42 39 36 34 34 33 32 32 31 28 26 27 28 27 28 29 30 31 31 31 31 30 30 31 31 33 35 35 36 37 39 40 40 39 39 40 40 40 39 37 36
38 39 38 37 36 36 37 36 35 34 32 30 29 29 30 31 31 31 31 32 32 32 31 31 30 30 31 32 33 35 38 40 42 42 43 42 43 43 44 44 43 42
35 35 35 36 36 37 39 40 39 38 37 36 34 33 32 34 36 36 35 35 34 34 34 34 34 34 33 33 33 34 36 39 41 43 44 44 44 45 46 47 47 47
37 36 36 36 36 37 38 40 41 42 41 41 40 39 37 36 38 40 41 41 40 39 39 39 40 40 39 39 38 37 37 39 41 43 44 44 44 45 46 47 48 49
41 41 40 40 39 39 39 40 41 42 44 44 44 44 43 41 40 41 42 44 45 45 44 44 44 45 46 46 45 43 41 40 41 43 45 46 46 46 46 47 48 49
43 44 44 44 44 44 44 43 43 44 44 45 46 47 47 47 45 44 44 45 46 48 48 47 47 48 49 49 49 49 47 44 42 43 45 47 48 48 49 48 48 49
42 43 44 45 46 47 47 47 48 48 48 48 48 49 49 49 49 49 48 47 48 49 50 51 51 50 50 50 51 51 51 50 48 46 47 48 50 50 50 51 50 50
43 43 44 44 46 47 48 49 50 50 51 51 51 51 51 51 51 52 52 51 51 51 52 53 54 54 54 53 53 53 54 54 53 52 51 51 52 53 54 55 55 54
43 43 44 44 44 45 46 47 49 49 50 50 51 51 51 52 52 53 54 54 54 54 54 55 56 56 57 57 57 56 56 56 57 57 57 56 56 56 57 58 59 58
36 36 37 37 38 39 40 41 43 44 45 46 47 48 48 49 50 51 52 53 54 55 55 56 57 58 58 59 59 60 60 59 60 60 60 61 60 61 61 61 60 60
27 28 29 30 31 32 33 34 35 36 37 38 40 41 42 44 46 47 49 50 51 52 54 55 56 57 59 60 61 62 62 63 63 63 63 63 63 63 64 64 64 63
24 24 25 25 26 28 29 30 32 33 34 35 36 37 37 39 40 42 44 46 47 49 51 53 55 57 58 59 61 62 64 65 66 66 67 66 66 65 65 65 66 66
Wind_Direction
236 313 333 307 299 299 294 285 259 214 202 204 200 194 189 182 176 171 165 159 157 156 155 152 146 144 145 141 138 139 143 148 151 149 141 132 134 138 136 133 131 127
219 209 227 242 255 268 273 273 267 250 228 216 207 201 196 189 182 177 172 165 162 161 161 161 157 153 152 150 146 146 149 154 157 157 152 143 141 146 147 145 142 140
223 216 216 221 243 271 282 278 267 252 238 226 212 204 198 191 184 182 179 172 169 169 170 171 169 163 160 158 156 155 156 160 163 163 161 157 156 159 161 163 160 155
225 222 217 220 242 276 282 270 260 250 238 229 216 207 200 192 186 185 185 181 178 177 178 179 179 173 168 165 164 163 164 167 170 171 172 173 174 176 179 182 182 173
226 223 215 211 228 254 260 254 247 241 234 227 218 210 202 194 190 189 189 187 185 183 184 185 185 182 177 173 172 171 171 174 178 182 184 187 192 196 198 198 198 192
228 224 211 201 215 235 244 245 241 235 228 224 218 211 205 198 194 193 193 192 190 189 189 191 192 191 187 183 181 180 181 183 187 191 196 199 202 205 209 211 211 206
236 228 211 203 218 232 234 235 235 230 225 222 218 212 208 203 199 198 198 197 195 194 194 196 199 201 199 196 193 193 195 197 198 201 204 207 207 207 210 215 220 221
247 239 217 207 220 233 230 226 225 226 223 220 219 214 210 208 205 203 203 202 202 201 201 202 205 208 209 207 206 205 207 210 213 214 215 216 216 215 215 218 224 228
240 239 225 212 215 223 224 221 220 223 221 218 219 217 214 212 211 211 210 209 209 209 210 211 213 215 216 216 216 215 216 219 222 225 227 228 228 227 225 226 229 234
229 232 228 220 216 215 216 220 223 225 224 220 219 218 218 217 216 216 217 218 218 218 219 219 221 222 223 224 225 225 226 228 230 232 234 235 236 236 234 233 234 237
226 229 226 223 217 209 207 215 224 228 229 227 224 221 220 221 220 220 221 223 225 226 227 228 228 228 229 230 231 232 233 235 236 237 238 239 240 240 239 238 239 240
225 226 224 221 215 206 203 208 217 225 230 234 232 227 225 226 227 227 226 227 229 231 232 233 234 234 235 236 237 238 239 240 240 241 242 243 244 244 244 243 243 244
225 224 224 221 214 208 207 209 213 219 225 232 234 232 229 229 231 232 232 231 231 233 234 236 238 239 241 242 244 245 245 244 244 245 246 246 247 247 247 247 246 247
226 225 226 224 219 214 213 215 218 221 223 227 231 233 234 234 234 234 234 234 234 235 236 238 240 242 244 246 247 249 249 248 247 248 249 249 250 249 249 249 248 248
226 226 228 227 224 220 218 219 223 227 228 227 227 230 233 236 238 238 236 234 233 234 236 239 241 244 246 248 248 250 252 251 250 250 251 252 252 252 251 250 249 249
226 227 228 229 228 225 223 223 226 231 234 235 233 231 230 233 236 238 238 235 233 233 235 237 240 244 247 250 252 253 254 254 252 252 252 253 254 254 254 254 253 253
228 229 230 231 231 230 229 229 230 233 237 241 242 239 235 233 234 236 238 238 236 236 237 238 239 243 247 251 254 256 256 256 254 253 252 253 254 255 256 256 256 256
228 230 232 234 235 236 236 236 236 237 239 243 246 247 246 243 241 240 241 242 243 243 244 244 244 246 250 253 256 258 258 257 257 255 254 254 255 257 258 258 257 257
229 231 234 236 237 239 241 242 243 243 244 245 248 250 252 253 251 249 248 248 250 251 252 252 251 252 255 258 259 259 259 259 259 257 255 255 257 259 260 260 259 258
235 236 237 238 240 242 243 245 247 248 249 250 251 252 254 256 257 258 257 255 255 255 257 258 257 257 259 260 261 261 261 262 261 259 256 255 257 259 261 260 260 260
243 244 244 245 246 247 247 248 249 250 252 253 254 254 255 257 258 259 261 261 259 258 258 259 260 261 261 262 261 261 261 262 262 261 259 257 257 259 259 259 261 263
251 252 253 253 253 253 253 253 253 254 254 255 256 257 258 259 259 260 261 262 263 262 261 260 261 262 264 264 263 262 261 261 262 262 261 259 258 258 258 258 260 263
256 256 256 256 256 255 255 255 255 256 256 256 258 259 260 261 262 262 262 262 263 263 263 262 261 262 264 266 266 265 263 262 262 262 262 261 260 259 259 259 259 260
254 255 255 256 256 256 255 255 255 256 256 257 258 260 261 262 262 262 262 261 261 262 262 262 262 262 263 265 265 266 265 264 263 262 262 262 261 261 261 260 259 259
251 254 255 256 255 255 254 253 253 253 254 255 256 257 258 259 259 259 259 259 259 259 259 259 260 260 261 262 263 263 264 264 263 263 263 262 262 262 261 261 261 260
247 250 252 252 254 255 255 254 253 254 254 255 255 256 256 256 257 257 258 258 258 258 258 258 258 259 259 259 260 260 261 262 262 263 263 263 262 261 260 260 260 259
Height
10962 10962 10963 10965 10966 10965 10965 10964 10964 10963 10962 10962 10961 10961 10961 10962 10962 10963 10963 10964 10965 10965 10966 10967 10968 10968 10969 10970 10971 10971 10972 10973 10974 10975 10976 10976 10977 10978 10978 10979 10979 10979
10962 10962 10963 10964 10966 10967 10966 10965 10965 10964 10962 10962 10961 10961 10961 10962 10962 10963 10964 10964 10965 10966 10967 10968 10969 10969 10970 10971 10971 10972 10973 10973 10974 10975 10976 10977 10978 10979 10979 10980 10980 10980
10962 10962 10962 10963 10965 10967 10968 10967 10966 10964 10963 10962 10961 10961 10961 10962 10962 10963 10964 10965 10966 10967 10968 10969 10969 10970 10971 10971 10972 10973 10973 10974 10974 10975 10976 10977 10978 10979 10980 10981 10981 10981
10961 10962 10963 10964 10966 10969 10970 10969 10967 10965 10964 10962 10961 10961 10961 10961 10962 10963 10964 10965 10966 10967 10968 10969 10970 10971 10971 10972 10973 10973 10974 10974 10975 10975 10976 10977 10977 10978 10980 10981 10981 10982
10961 10962 10964 10966 10967 10969 10968 10967 10966 10965 10963 10962 10961 10961 10961 10961 10962 10962 10963 10964 10965 10966 10967 10969 10970 10971 10971 10972 10973 10974 10974 10975 10975 10976 10976 10976 10977 10977 10979 10980 10981 10982
10959 10962 10965 10967 10966 10965 10964 10964 10965 10963 10962 10962 10961 10960 10960 10961 10961 10962 10963 10963 10964 10965 10966 10968 10969 10970 10971 10972 10972 10973 10974 10975 10975 10976 10976 10976 10976 10977 10977 10978 10980 10981
10958 10961 10964 10966 10965 10963 10963 10963 10963 10962 10961 10960 10960 10959 10959 10960 10960 10961 10962 10963 10963 10964 10965 10966 10968 10969 10970 10971 10972 10972 10973 10974 10975 10975 10975 10976 10976 10976 10976 10977 10978 10979
10955 10958 10962 10965 10964 10962 10961 10961 10960 10959 10958 10958 10958 10958 10958 10959 10959 10960 10961 10961 10962 10963 10964 10965 10966 10967 10968 10969 10970 10971 10972 10973 10973 10974 10974 10975 10975 10975 10975 10976 10977 10978
10948 10951 10957 10960 10959 10958 10957 10957 10957 10956 10956 10956 10956 10956 10957 10957 10958 10959 10959 10960 10961 10962 10963 10964 10965 10966 10967 10968 10969 10970 10970 10971 10972 10973 10973 10974 10974 10974 10974 10974 10975 10976
10941 10944 10949 10952 10952 10952 10952 10953 10953 10953 10953 10953 10953 10953 10954 10955 10956 10957 10958 10959 10960 10960 10961 10963 10964 10965 10966 10967 10968 10968 10969 10970 10971 10971 10972 10972 10973 10973 10973 10973 10973 10974
10937 10939 10942 10945 10946 10947 10948 10948 10948 10948 10949 10949 10950 10950 10951 10952 10953 10955 10956 10957 10958 10959 10960 10961 10962 10963 10964 10965 10966 10967 10967 10968 10969 10969 10970 10970 10971 10971 10971 10972 10972 10972
10933 10935 10938 10940 10941 10942 10943 10944 10944 10944 10945 10946 10946 10947 10948 10949 10950 10952 10953 10954 10955 10956 10957 10958 10959 10960 10961 10962 10963 10964 10965 10965 10966 10967 10968 10968 10969 10969 10969 10970 10970 10970
10929 10931 10933 10935 10936 10937 10938 10940 10940 10941 10942 10942 10943 10944 10945 10946 10947 10948 10949 10950 10951 10952 10953 10954 10956 10957 10958 10960 10961 10961 10962 10962 10963 10964 10965 10966 10966 10967 10967 10967 10967 10967
10924 10927 10928 10930 10932 10933 10934 10935 10936 10937 10938 10939 10940 10941 10942 10943 10943 10944 10945 10946 10947 10948 10949 10951 10952 10953 10954 10956 10957 10957 10957 10958 10959 10960 10961 10962 10963 10964 10964 10964 10964 10964
10920 10922 10923 10925 10927 10928 10930 10931 10932 10933 10935 10936 10937 10938 10939 10940 10940 10941 10942 10943 10944 10945 10946 10947 10948 10949 10950 10951 10952 10952 10953 10954 10955 10956 10957 10957 10958 10959 10959 10960 10960 10960
10915 10917 10919 10920 10922 10924 10925 10926 10927 10929 10930 10931 10933 10934 10936 10937 10938 10938 10939 10940 10940 10941 10942 10943 10944 10945 10945 10946 10947 10948 10948 10949 10950 10950 10951 10952 10953 10954 10954 10955 10955 10956
10911 10912 10914 10916 10917 10919 10920 10921 10923 10924 10925 10926 10928 10929 10931 10933 10934 10935 10936 10937 10937 10938 10938 10939 10940 10940 10941 10942 10942 10943 10943 10944 10945 10945 10946 10947 10947 10948 10949 10950 10950 10951
10907 10908 10910 10911 10913 10914 10916 10917 10918 10919 10920 10921 10922 10924 10926 10928 10929 10930 10931 10932 10933 10934 10934 10935 10935 10936 10936 10937 10938 10938 10939 10939 10940 10941 10941 10942 10943 10944 10944 10945 10945 10946
10903 10904 10906 10907 10908 10910 10911 10912 10914 10915 10916 10917 10918 10919 10920 10922 10924 10925 10926 10927 10927 10928 10929 10930 10931 10931 10931 10932 10933 10934 10934 10935 10935 10936 10936 10937 10938 10938 10939 10940 10941 10941
10899 10901 10902 10903 10904 10905 10906 10908 10909 10910 10911 10912 10913 10913 10915 10916 10917 10919 10920 10921 10922 10922 10923 10924 10924 10925 10926 10926 10927 10928 10929 10930 10930 10930 10931 10931 10932 10933 10934 10935 10935 10936
10895 10896 10898 10899 10900 10900 10901 10902 10903 10904 10905 10906 10907 10908 10909 10910 10911 10912 10913 10915 10916 10916 10917 10917 10917 10918 10919 10920 10921 10921 10922 10923 10924 10924 10925 10925 10926 10927 10928 10928 10929 10930
10890 10892 10893 10894 10894 10895 10896 10897 10898 10898 10899 10900 10901 10902 10903 10904 10905 10906 10907 10908 10909 10910 10910 10911 10911 10911 10911 10912 10913 10914 10915 10916 10916 10917 10918 10918 10920 10920 10921 10922 10923 10924
10885 10886 10887 10888 10889 10889 10890 10891 10891 10892 10893 10894 10895 10896 10897 10897 10898 10899 10900 10902 10902 10903 10903 10903 10904 10904 10904 10904 10905 10906 10907 10908 10909 10909 10910 10911 10912 10913 10913 10914 10915 10917
10879 10880 10881 10882 10883 10884 10884 10885 10886 10886 10887 10888 10889 10889 10890 10891 10891 10892 10893 10894 10895 10895 10895 10895 10896 10897 10897 10897 10897 10897 10898 10899 10900 10901 10901 10902 10903 10904 10905 10905 10906 10908
10875 10876 10877 10878 10879 10880 10880 10880 10881 10881 10881 10882 10882 10883 10884 10884 10884 10885 10885 10886 10886 10886 10887 10887 10887 10888 10888 10888 10888 10888 10889 10889 10890 10891 10892 10893 10894 10894 10895 10895 10896 10898
10871 10873 10874 10875 10876 10876 10877 10877 10877 10877 10877 10877 10877 10877 10877 10878 10878 10878 10878 10878 10879 10878 10878 10879 10879 10879 10879 10879 10879 10879 10879 10879 10880 10881 10881 10883 10884 10884 10884 10885 10886 10888